OAL942 LGAL-LGAV

Flight info

Callsign OAL942
Flight time N/A
Altitude 26000
Route LMO G33 NEVRA
Aircraft A319/M-SDE3FGHIRWY/LB1

Departure

Time 2026-04-30 19:59
Airport Alexandroupoli Democritus Airport (LGAL)

Arrival

Time N/A
Airport Athens Eleftherios Venizelos International Airport (LGAV)
Time Latitude Longitude Altitude Speed Heading
2026-04-30 19:33 40.85576 25.94515 17 ft 0 kts 73°
2026-04-30 19:57 40.85577 25.94515 17 ft 0 kts 73°
2026-04-30 19:57 40.85598 25.94620 18 ft 23 kts 95°
2026-04-30 19:58 40.85537 25.94725 17 ft 13 kts 120°
2026-04-30 19:58 40.85487 25.94839 16 ft 15 kts 124°
2026-04-30 19:58 40.85447 25.95027 15 ft 45 kts 77°
2026-04-30 19:58 40.85612 25.95733 19 ft 114 kts 74°
2026-04-30 19:59 40.85885 25.96986 144 ft 157 kts 66°
2026-04-30 19:59 40.86186 25.98285 868 ft 152 kts 65°
2026-04-30 19:59 40.87074 26.00801 2256 ft 164 kts 66°
2026-04-30 20:00 40.87186 26.02373 2742 ft 189 kts 87°
2026-04-30 20:00 40.86753 26.04134 3248 ft 218 kts 111°
2026-04-30 20:00 40.85678 26.05678 3906 ft 242 kts 140°
2026-04-30 20:00 40.84108 26.06472 4921 ft 247 kts 169°
2026-04-30 20:01 40.81004 26.05128 6901 ft 244 kts 225°
2026-04-30 20:01 40.80096 26.03299 7755 ft 241 kts 251°
2026-04-30 20:01 40.79650 26.01178 8391 ft 250 kts 256°
2026-04-30 20:02 40.78771 25.96434 9267 ft 284 kts 254°
2026-04-30 20:02 40.78257 25.93825 9666 ft 302 kts 253°
2026-04-30 20:03 40.76785 25.88361 10306 ft 335 kts 232°
2026-04-30 20:03 40.74981 25.86349 10716 ft 350 kts 210°
2026-04-30 20:03 40.72786 25.84922 11387 ft 355 kts 207°
2026-04-30 20:03 40.70570 25.83503 12064 ft 358 kts 209°
2026-04-30 20:04 40.68362 25.82001 12718 ft 361 kts 210°
2026-04-30 20:04 40.66133 25.80404 13336 ft 365 kts 212°
2026-04-30 20:04 40.63915 25.78766 13958 ft 368 kts 212°
2026-04-30 20:05 40.59469 25.75423 15141 ft 374 kts 213°
2026-04-30 20:05 40.57212 25.73718 15713 ft 376 kts 213°
2026-04-30 20:05 40.52666 25.70219 16826 ft 382 kts 214°
2026-04-30 20:06 40.50393 25.68456 17338 ft 385 kts 214°
2026-04-30 20:06 40.48077 25.66663 17844 ft 387 kts 214°
2026-04-30 20:06 40.45734 25.64852 18346 ft 390 kts 214°
2026-04-30 20:06 40.43413 25.63059 18817 ft 392 kts 214°
2026-04-30 20:07 40.41067 25.61249 19290 ft 395 kts 214°
2026-04-30 20:07 40.38701 25.59424 19727 ft 397 kts 215°
2026-04-30 20:07 40.33888 25.55721 20583 ft 403 kts 215°
2026-04-30 20:08 40.31482 25.53870 21005 ft 405 kts 214°
2026-04-30 20:08 40.29055 25.52007 21425 ft 407 kts 215°
2026-04-30 20:08 40.26606 25.50128 21812 ft 410 kts 215°
2026-04-30 20:08 40.24130 25.48230 22185 ft 412 kts 215°
2026-04-30 20:09 40.21657 25.46337 22570 ft 414 kts 214°
2026-04-30 20:09 40.19168 25.44434 22947 ft 416 kts 215°
2026-04-30 20:09 40.14162 25.40609 23640 ft 421 kts 215°
2026-04-30 20:10 40.09081 25.36735 24341 ft 425 kts 215°
2026-04-30 20:10 40.06549 25.34806 24668 ft 427 kts 215°
2026-04-30 20:10 40.03963 25.32836 25011 ft 429 kts 214°
2026-04-30 20:11 39.98782 25.28895 25620 ft 434 kts 215°
2026-04-30 20:11 39.96171 25.26913 25912 ft 436 kts 214°
2026-04-30 20:11 39.93514 25.25067 26075 ft 441 kts 211°
2026-04-30 20:12 39.87754 25.22055 26080 ft 447 kts 202°
2026-04-30 20:12 39.87546 25.21969 26081 ft 447 kts 202°